Terminal Aerodrome Forecast
Issued by NWS Wakefield, VA

Home | Current Version | Previous Version | Text Only | Print | Product List | Glossary On
Versions: 1 2 3 4 5 6 7 8 9 10 11 12 13 14
000
FTUS41 KAKQ 010531
TAFSBY
TAF
KSBY 010531Z 0106/0206 VRB03KT P6SM SCT015
      TEMPO 0106/0110 4SM BR OVC015
     FM011400 28005KT P6SM SCT050
     FM012300 VRB03KT P6SM SKC=

USA.gov is the U.S. government's official web portal to all federal, state and local government web resources and services.